Regional Weather Roundup
Issued by NWS

Home | Current Version | Previous Version | Text Only | Print | Product List | Glossary On
Versions: 1 2 3 4 5 6 7 8 9 10 11 12 13 14 15 16 17 18 19 20 21 22 23 24 25 26 27 28 29 30 31 32 33 34 35 36 37 38 39 40 41 42 43 44 45 46 47 48 49 50
000
ASCA42 TJSJ 041710
RWRPR
PUERTO RICO/U.S. VIRGIN ISLANDS HOURLY WEATHER ROUNDUP
NATIONAL WEATHER SERVICE SAN JUAN PR
100 PM AST WED MAR 04 2015

PRZ001-004-041800-
PUERTO RICO

CITY           SKY/WX    TMP DP  RH WIND       PRES   REMARKS
SAN JUAN LMM   MOSUNNY   82  68  61 NE20G29   30.10F
MAYAGUEZ       MOSUNNY   84  68  58 E17       30.11
AGUADILLA      MOSUNNY   81  64  57 E25G33    30.11F
CEIBA          CLOUDY   N/A N/A N/A MISG      30.12F
$$

PRZ006-007-041800-
U.S. VIRGIN ISLANDS

CITY           SKY/WX    TMP DP  RH WIND       PRES   REMARKS
$$

HOURLY WEATHER ROUNDUP FOR THE NEWS MEDIA

CITY           SKY/WX    TMP DP  RH WIND       PRES   REMARKS
ORLANDO        MOSUNNY   81  66  60 S10       30.16F
NEW YORK       CLOUDY    37  34  89 SW13      29.89F FOG     WCI  29
NEWARK         CLOUDY    39  36  89 SW7       29.87F FOG     WCI  34
CHICAGO        PTSUNNY   19   6  57 W13       30.12R WCI   6
HARTFORD       CLOUDY    41  36  82 SW8       29.81R
BOSTON         CLOUDY    41  31  67 W14       29.78R
DALLAS         RAIN      46  45  93 N9        29.96R FOG
PHILADELPHIA   CLOUDY    41  38  89 S7        29.91S FOG
LOS ANGELES    MOSUNNY   59  43  55 E5        30.08R
WASHINGTON DC  CLOUDY    43  39  86 S5        29.91S



USA.gov is the U.S. government's official web portal to all federal, state and local government web resources and services.